This demonstration page uses our WeatherBlox Daily Observations layout. Learn more.

Left ArrowRight Arrow

39.12711, -84.51439

Hourly Observations for June 28, 2021

Temp ( °F °C ) Dew Point ( °F °C ) Humidity (%) Winds ( mph kmh ) Pressure ( in mb ) Visibility ( mi km ) Precip ( " mm )
12:53 am 00:53 Clear 72 22.2 68 20 87 87 S 3 6 30.12 1020 10 16 N/A
1:53 am 01:53 Clear 72 22.2 67 19.4 84 84 N N/A 30.12 1020 10 16 N/A
2:53 am 02:53 Clear 70 21.1 67 19.4 90 90 N N/A 30.13 1020 10 16 N/A
3:53 am 03:53 Clear 68 20 66 18.9 93 93 N N/A 30.14 1021 10 16 N/A
4:53 am 04:53 Clear 69 20.6 67 19.4 93 93 N N/A 30.14 1021 10 16 N/A
5:53 am 05:53 Clear 68 20 66 18.9 93 93 N N/A 30.16 1021 9 14 N/A
6:53 am 06:53 Sunny 69 20.6 67 19.4 93 93 N N/A 30.16 1021 10 16 N/A
7:53 am 07:53 Sunny 72 22.2 69 20.6 91 91 N N/A 30.17 1022 10 16 N/A
8:53 am 08:53 Sunny 78 25.6 71 21.7 79 79 S 6 9 30.19 1022 10 16 N/A
9:53 am 09:53 Mostly Sunny 82 27.8 73 22.8 74 74 S 5 7 30.19 1023 10 16 N/A
10:53 am 10:53 Sunny 86 30 73 22.8 65 65 SSW 7 11 30.19 1022 10 16 N/A
11:53 am 11:53 Mostly Cloudy 88 31.1 74 23.3 63 63 S 7 11 30.19 1022 10 16 N/A
12:53 pm 12:53 Mostly Cloudy 85 29.4 73 22.8 68 68 SSE 3 6 30.19 1022 10 16 N/A
1:53 pm 13:53 Mostly Cloudy with Thunderstorms 80 26.7 72 22.2 76 76 VRB 7 11 30.20 1023 5 8 0.00 0.00
2:40 pm 14:40 Mostly Cloudy 82 27.8 73 22.8 74 74 N N/A 30.17 1022 10 16 0.00 0.00
2:53 pm 14:53 Mostly Cloudy 85 29.4 74 23.3 70 70 NNW 5 7 30.18 1022 10 16 0.00 0.00
3:53 pm 15:53 Partly Cloudy 89 31.7 72 22.2 57 57 N N/A 30.16 1021 10 16 N/A
4:53 pm 16:53 Partly Cloudy 89 31.7 73 22.8 59 59 S 8 13 30.14 1021 10 16 N/A
5:53 pm 17:53 Mostly Sunny 90 32.2 73 22.8 58 58 N N/A 30.13 1020 10 16 N/A
6:53 pm 18:53 Partly Cloudy 88 31.1 73 22.8 61 61 SSE 6 9 30.12 1020 10 16 N/A
7:53 pm 19:53 Mostly Sunny 88 31.1 72 22.2 59 59 SE 6 9 30.13 1020 10 16 N/A
8:53 pm 20:53 Mostly Sunny 82 27.8 75 23.9 79 79 N N/A 30.14 1021 10 16 N/A
9:53 pm 21:53 Clear 79 26.1 74 23.3 85 85 N N/A 30.16 1021 10 16 N/A
10:53 pm 22:53 Clear 76 24.4 72 22.2 88 88 N N/A 30.17 1022 10 16 N/A
11:53 pm 23:53 Clear 75 23.9 73 22.8 94 94 N N/A 30.18 1022 10 16 N/A

Powered by AerisWeather